Location: Chuathbaluk
(61.5726°N, 159.2454°W)
Time: 13:46:53
(UTC+00:00)

DELFI C3 - Pass Details

Date: 18 January 2021
Orbit: 531 x 550 km, 97.4° (Epoch: 04 March)

Event Time Altitude Azimuth Distance (km) Brightness Sun altitude
Exits shadow 03:16:27 10° 51° (NE) 1,853 ? -7.8°
Reaches altitude 10° 03:16:39 10° 49° (NE) 1,837 ? -7.8°
Maximum altitude 03:17:21 10° 38° (NE) 1,813 ? -7.9°
Drops below altitude 10° 03:18:03 10° 28° (NNE) 1,840 ? -8.0°
Sets 03:22:02 0° 348° (NNW) 2,743 ? -8.4°
